Location: Ferchesar
(52.6477°N, 12.4298°E)
Time: 17:25:57
(UTC+01:00)

Vanguard 1 Rocket - Pass Details

Date: 08 December 2021
Orbit: 651 x 4224 km, 34.3° (Epoch: 16 January)

Event Time Altitude Azimuth Distance (km) Brightness Sun altitude
Exits shadow 07:13:23 - 268° (W) 5,954 11.0 -7.8°
Reaches altitude 10° 07:17:37 10° 256° (WSW) 5,452 10.9 -7.3°
Maximum altitude 07:30:47 27° 208° (SSW) 5,331 11.3 -5.5°
Drops below altitude 10° 07:48:40 10° 163° (SSE) 7,392 12.9 -3.2°
Sets 07:56:15 0° 153° (SSE) 8,444 13.6 -2.3°
